Flag for Germany Weather past 2 weeks in Aschersleben, Saxony-Anhalt, Germany

Now
59 °F

Overcast.


Feels Like: 59 °F
Forecast: 55 / 72 °F
Wind: 1 mph from Southeast

Location: Magdeburg

Current Time: Aug 29, 2014 at 3:50:41 AM

Latest Report: Aug 29, 2014 at 3:00 AM


Visibility: 15 mi

Pressure: 29.97 "Hg

Humidity: 75%

Dew point: 51 °F

Location of AscherslebenLocation

Historic Weather in Aschersleben — Graph

°F

Aschersleben temperature yesterday

Maximum temperature yesterday: 75 °F (at 6:00 PM)
Minimum temperature yesterday: 46 °F (at 6:00 AM)
Average temperature yesterday: 61 °F

Past Weeks' High & Low Weather Summary

 TemperatureHumidityPressure
High75 °F (Aug 28, 6:00 PM)97% (Aug 26, 4:00 AM)30.08 "Hg (Aug 26, 4:00 AM)
Low45 °F (Aug 25, 7:00 AM)31% (Aug 28, 4:00 PM)29.62 "Hg (Aug 18, 3:00 PM)
Average59 °F70%29.90 "Hg
* Reported Aug 14 2:00 AM — Aug 29 2:00 AM, Aschersleben, Weather by CustomWeather, © 2014

Note: Actual official high and low records may vary slightly from our data, if they occured in-between our weather recording intervals... More about our weather records

Advertising

Aschersleben weather history for previous 24 hours

 ConditionsComfort  
Time TempWeatherWind HumidityBarometerVisibility
2:00 AM
Aug 29
60 °FPassing clouds.1 mph74%29.99 "Hg19 mi
1:00 AM62 °FOvercast.1 mph70%29.99 "Hg22 mi
12:00 AM61 °FOvercast.1 mph73%30.00 "Hg22 mi
10:00 PM
Aug 28
63 °FOvercast.1 mph71%30.00 "Hg25 mi
9:00 PM64 °FOvercast.1 mph70%30.00 "Hg28 mi
8:00 PM67 °FPartly sunny.1 mph62%29.99 "Hg31 mi
7:00 PM74 °FScattered clouds.1 mph41%29.99 "Hg43 mi
6:00 PM75 °FScattered clouds.1 mph33%29.99 "Hg43 mi
4:00 PM74 °FPassing clouds.2 mph31%30.02 "Hg37 mi
3:00 PM73 °FPassing clouds.1 mph34%30.03 "Hg37 mi
2:00 PM73 °FPassing clouds.2 mph35%30.04 "Hg37 mi
1:00 PM72 °FScattered clouds.2 mph39%30.05 "Hg31 mi
12:00 PM69 °FPassing clouds.2 mph39%30.07 "Hg31 mi
10:00 AM63 °FSunny.2 mph61%30.08 "Hg28 mi
9:00 AM59 °FSunny.1 mph73%30.08 "Hg28 mi
8:00 AM51 °FSunny.1 mph96%30.08 "Hg22 mi
7:00 AM46 °FSunny.1 mph96%30.07 "Hg28 mi
6:00 AM46 °FClear.1 mph96%30.07 "Hg25 mi
4:00 AM47 °FClear.1 mph93%30.06 "Hg10 mi
3:00 AM48 °FClear.1 mph91%30.06 "Hg10 mi
Weather by CustomWeather, © 2014

See weather overviewHow to use our weather pages